When you browse on this site, cookies collect data to enhance your experience and personalize the content and advertising you see.
Visit our Privacy Policy to learn more. By continuing to use the site, you agree to this use of cookies and data.
  • In Hungary
  • List of Countries
  • For 7 days
  • Water Temperature
  • Satellite Maps
  • Weather Map
  • News
  • Weather Widgets
  • user-avatar
    Login

    Hourly Weather Chittaurgarh

    Today, 20 January, Sunday

    Time Temperature Precipitation Wind Pressure Humidity
    00:00 +18°C° 0 mm 1 mps 726 mmHg 30%
    01:00 +18°C° 0 mm 1 mps 725 mmHg 30%
    02:00 +16°C° 0 mm 1 mps 725 mmHg 30%
    03:00 +16°C° 0 mm 1 mps 725 mmHg 31%
    04:00 +16°C° 0 mm 1 mps 725 mmHg 31%
    05:00 +15°C° 0 mm 2 mps 725 mmHg 32%
    06:00 +16°C° 0 mm 2 mps 726 mmHg 33%
    07:00 +16°C° 0 mm 2 mps 726 mmHg 34%
    08:00 +18°C° 0 mm 1 mps 726 mmHg 36%
    09:00 +20°C° 0 mm 2 mps 727 mmHg 31%
    10:00 +24°C° 0 mm 2 mps 727 mmHg 26%
    11:00 +28°C° 0 mm 3 mps 727 mmHg 21%
    12:00 +29°C° 0 mm 3 mps 727 mmHg 20%
    13:00 +30°C° 0 mm 3 mps 726 mmHg 18%
    14:00 +31°C° 0 mm 3 mps 725 mmHg 17%
    15:00 +30°C° 0 mm 3 mps 725 mmHg 20%
    16:00 +29°C° 0 mm 3 mps 724 mmHg 24%
    17:00 +27°C° 0 mm 2 mps 724 mmHg 29%
    18:00 +25°C° 0 mm 2 mps 724 mmHg 29%
    19:00 +24°C° 0 mm 2 mps 724 mmHg 30%
    20:00 +21°C° 0 mm 3 mps 724 mmHg 30%
    21:00 +21°C° 0 mm 2 mps 724 mmHg 31%
    22:00 +20°C° 0 mm 2 mps 724 mmHg 31%
    23:00 +20°C° 0 mm 2 mps 724 mmHg 32%

    Tomorrow, 21 January, Monday

    Time Temperature Precipitation Wind Pressure Humidity
    00:00 +19°C° 0 mm 2 mps 723 mmHg 33%
    01:00 +19°C° 0 mm 1 mps 723 mmHg 34%
    02:00 +19°C° 0 mm 1 mps 723 mmHg 36%
    03:00 +19°C° 0 mm 1 mps 723 mmHg 36%
    04:00 +18°C° 0 mm 1 mps 723 mmHg 37%
    05:00 +17°C° 0 mm 2 mps 723 mmHg 38%
    06:00 +18°C° 0 mm 2 mps 723 mmHg 39%
    07:00 +18°C° 0 mm 2 mps 723 mmHg 40%
    08:00 +19°C° 0 mm 2 mps 724 mmHg 41%
    09:00 +21°C° 0 mm 4 mps 724 mmHg 37%
    10:00 +25°C° 0 mm 5 mps 724 mmHg 33%
    11:00 +28°C° 0 mm 6 mps 724 mmHg 29%
    12:00 +29°C° 0 mm 6 mps 723 mmHg 26%
    13:00 +29°C° 0 mm 7 mps 723 mmHg 23%
    14:00 +31°C° 0 mm 8 mps 722 mmHg 20%
    15:00 +29°C° 0 mm 7 mps 722 mmHg 22%
    16:00 +28°C° 0 mm 6 mps 721 mmHg 23%
    17:00 +26°C° 0 mm 5 mps 721 mmHg 25%
    18:00 +23°C° 0 mm 4 mps 721 mmHg 30%
    19:00 +22°C° 0 mm 4 mps 722 mmHg 34%
    20:00 +20°C° 0 mm 4 mps 722 mmHg 38%
    21:00 +19°C° 0 mm 4 mps 722 mmHg 45%
    22:00 +18°C° 0 mm 4 mps 722 mmHg 53%
    23:00 +18°C° 0 mm 3 mps 722 mmHg 60%

    Day after tomorrow, 22 January, Tuesday

    Time Temperature Precipitation Wind Pressure Humidity
    00:00 +17°C° 0 mm 3 mps 722 mmHg 63%
    01:00 +17°C° 0 mm 3 mps 722 mmHg 67%
    02:00 +17°C° 0 mm 3 mps 722 mmHg 71%
    03:00 +16°C° 0 mm 2 mps 722 mmHg 74%
    04:00 +16°C° 0 mm 2 mps 722 mmHg 77%
    05:00 +15°C° 0 mm 2 mps 722 mmHg 80%
    06:00 +16°C° 0 mm 2 mps 722 mmHg 79%
    07:00 +16°C° 0 mm 2 mps 723 mmHg 79%
    08:00 +16°C° 0 mm 2 mps 723 mmHg 78%
    09:00 +18°C° 0 mm 2 mps 724 mmHg 65%
    10:00 +20°C° 0 mm 3 mps 724 mmHg 52%
    11:00 +22°C° 0 mm 3 mps 725 mmHg 39%
    12:00 +24°C° 0 mm 3 mps 724 mmHg 35%
    13:00 +25°C° 0 mm 4 mps 724 mmHg 31%
    14:00 +26°C° 0 mm 4 mps 723 mmHg 28%
    15:00 +25°C° 0 mm 4 mps 723 mmHg 30%
    16:00 +24°C° 0 mm 3 mps 723 mmHg 32%
    17:00 +24°C° 0 mm 3 mps 723 mmHg 35%
    18:00 +21°C° 0 mm 2 mps 723 mmHg 37%
    19:00 +19°C° 0 mm 2 mps 723 mmHg 39%
    20:00 +17°C° 0 mm 2 mps 724 mmHg 42%
    21:00 +17°C° 0 mm 2 mps 724 mmHg 43%
    22:00 +16°C° 0 mm 2 mps 724 mmHg 44%
    23:00 +15°C° 0 mm 1 mps 724 mmHg 45%

    23 January, Wednesday

    Time Temperature Precipitation Wind Pressure Humidity
    00:00 +15°C° 0 mm 1 mps 724 mmHg 45%
    01:00 +14°C° 0 mm 1 mps 723 mmHg 45%
    02:00 +14°C° 0 mm 1 mps 723 mmHg 45%
    03:00 +14°C° 0 mm 1 mps 723 mmHg 47%
    04:00 +13°C° 0 mm 1 mps 723 mmHg 48%
    05:00 +13°C° 0 mm 1 mps 723 mmHg 49%
    06:00 +13°C° 0 mm 1 mps 724 mmHg 49%
    07:00 +14°C° 0 mm 1 mps 724 mmHg 49%
    08:00 +15°C° 0 mm 1 mps 725 mmHg 49%
    09:00 +18°C° 0 mm 1 mps 725 mmHg 43%
    10:00 +20°C° 0 mm 1 mps 726 mmHg 38%
    11:00 +23°C° 0 mm 2 mps 726 mmHg 33%
    12:00 +24°C° 0 mm 2 mps 726 mmHg 30%
    13:00 +24°C° 0 mm 2 mps 725 mmHg 27%
    14:00 +25°C° 0 mm 2 mps 724 mmHg 24%
    15:00 +24°C° 0 mm 2 mps 724 mmHg 27%
    16:00 +24°C° 0 mm 1 mps 724 mmHg 29%
    17:00 +23°C° 0 mm 1 mps 724 mmHg 32%
    18:00 +21°C° 0 mm 1 mps 724 mmHg 33%
    19:00 +19°C° 0 mm 1 mps 724 mmHg 35%
    20:00 +16°C° 0 mm 0 mps 725 mmHg 37%
    21:00 +16°C° 0 mm 1 mps 725 mmHg 38%
    22:00 +16°C° 0 mm 1 mps 725 mmHg 39%
    23:00 +15°C° 0 mm 2 mps 725 mmHg 40%

    24 January, Thursday

    Time Temperature Precipitation Wind Pressure Humidity
    00:00 +14°C° 0 mm 2 mps 725 mmHg 42%
    01:00 +13°C° 0 mm 3 mps 725 mmHg 44%
    02:00 +12°C° 0 mm 3 mps 725 mmHg 45%
    03:00 +12°C° 0 mm 3 mps 725 mmHg 47%
    04:00 +11°C° 0 mm 3 mps 725 mmHg 50%
    05:00 +11°C° 0 mm 3 mps 725 mmHg 52%
    06:00 +11°C° 0 mm 3 mps 726 mmHg 53%
    07:00 +12°C° 0 mm 3 mps 727 mmHg 55%
    08:00 +12°C° 0 mm 3 mps 727 mmHg 56%
    09:00 +16°C° 0 mm 3 mps 728 mmHg 51%
    10:00 +19°C° 0 mm 3 mps 728 mmHg 47%
    11:00 +21°C° 0 mm 3 mps 728 mmHg 42%
    12:00 +22°C° 0 mm 3 mps 727 mmHg 38%
    13:00 +24°C° 0 mm 2 mps 726 mmHg 34%
    14:00 +24°C° 0 mm 2 mps 726 mmHg 30%
    15:00 +24°C° 0 mm 2 mps 725 mmHg 34%
    16:00 +23°C° 0 mm 2 mps 725 mmHg 37%
    17:00 +21°C° 0 mm 3 mps 725 mmHg 40%
    18:00 +20°C° 0 mm 3 mps 725 mmHg 42%
    19:00 +19°C° 0 mm 3 mps 725 mmHg 44%
    20:00 +19°C° 0 mm 4 mps 726 mmHg 45%
    21:00 +18°C° 0 mm 4 mps 726 mmHg 48%
    22:00 +17°C° 0 mm 3 mps 725 mmHg 51%
    23:00 +16°C° 0 mm 3 mps 725 mmHg 54%

    25 January, Friday

    Time Temperature Precipitation Wind Pressure Humidity
    00:00 +16°C° 0 mm 3 mps 725 mmHg 55%
    01:00 +16°C° 0 mm 3 mps 725 mmHg 56%
    02:00 +15°C° 0 mm 4 mps 725 mmHg 58%
    03:00 +14°C° 0.1 mm 4 mps 725 mmHg 65%
    04:00 +12°C° 0.1 mm 4 mps 725 mmHg 73%
    05:00 +11°C° 0.1 mm 4 mps 725 mmHg 81%
    06:00 +11°C° 0.4 mm 4 mps 725 mmHg 82%
    07:00 +12°C° 0.4 mm 4 mps 726 mmHg 84%
    08:00 +12°C° 0.4 mm 4 mps 727 mmHg 85%
    09:00 +14°C° 0.1 mm 4 mps 727 mmHg 76%
    10:00 +17°C° 0.1 mm 4 mps 727 mmHg 66%
    11:00 +19°C° 0.1 mm 4 mps 727 mmHg 57%
    12:00 +20°C° 0.3 mm 4 mps 726 mmHg 51%
    13:00 +21°C° 0.3 mm 4 mps 725 mmHg 46%
    14:00 +22°C° 0.3 mm 4 mps 725 mmHg 40%
    15:00 +21°C° 0 mm 3 mps 725 mmHg 42%
    16:00 +20°C° 0 mm 3 mps 724 mmHg 44%
    17:00 +20°C° 0 mm 3 mps 724 mmHg 45%
    18:00 +18°C° 0 mm 3 mps 725 mmHg 49%
    19:00 +17°C° 0 mm 2 mps 725 mmHg 53%
    20:00 +15°C° 0 mm 2 mps 726 mmHg 57%
    21:00 +15°C° 0 mm 2 mps 726 mmHg 57%
    22:00 +14°C° 0 mm 2 mps 726 mmHg 58%
    23:00 +13°C° 0 mm 2 mps 726 mmHg 58%
    Show more